Temp
16 16 16 16 16 16 16 16 15 15 15 14 14 14 13 13 13 13 13 13 13 14 14 14 14 14 14 14 14 14 14 14 14 14 14 14 14 14 14 14 14 13 13 12 12 12 12 12 12 12 12 12 11 11 11 11 10 10 10 10 10 10 9 9 9 9 9 9 9
16 16 16 16 16 16 16 16 15 15 15 15 14 14 14 14 14 13 13 13 14 14 14 14 14 14 14 14 14 14 14 14 14 14 14 14 14 14 14 14 14 13 13 12 12 12 12 12 12 12 12 11 11 11 11 10 10 10 10 10 10 10 9 9 9 9 9 9 8
16 16 16 16 16 16 16 15 15 15 15 15 14 14 14 14 14 14 13 14 14 14 14 14 14 14 14 14 14 14 14 14 14 14 14 14 14 14 14 14 13 13 13 12 12 12 12 12 12 12 12 11 11 11 11 10 10 10 10 10 10 9 9 9 9 9 9 9 8
16 16 16 16 16 16 16 16 15 15 15 15 14 14 14 14 14 14 14 14 14 14 14 14 14 14 14 14 14 14 14 14 14 14 14 14 14 13 13 13 13 13 12 12 12 12 12 12 12 12 11 11 11 11 11 10 10 10 10 10 10 9 9 9 9 9 9 8 8
16 16 16 16 16 16 16 16 16 15 15 15 14 14 14 14 14 14 14 13 13 14 14 14 14 15 15 14 14 14 14 14 13 13 13 13 13 13 13 13 13 13 12 12 12 11 11 11 11 11 11 11 11 11 10 10 10 10 10 10 9 9 9 9 9 9 8 8 8
16 16 16 16 16 16 16 16 16 15 15 15 14 14 14 14 14 13 13 13 14 14 14 14 14 15 14 14 14 14 14 13 13 13 13 13 13 13 13 13 13 13 12 12 11 11 11 11 11 11 11 11 11 10 10 10 9 9 9 9 9 9 9 9 9 9 8 8 8
16 16 16 16 16 16 16 16 16 15 15 15 15 14 14 14 14 14 14 14 14 14 14 14 14 14 14 14 14 14 14 13 13 13 13 13 12 12 12 12 12 12 12 12 11 11 11 11 11 11 11 10 10 10 10 9 9 9 9 9 9 9 9 9 9 8 8 8 8
16 16 16 16 16 16 16 16 15 15 15 15 15 15 14 14 14 14 14 14 14 14 14 14 14 14 14 14 14 14 14 13 13 13 12 12 12 12 12 12 12 12 12 11 11 11 11 10 10 10 10 10 10 10 9 9 9 9 9 9 9 9 9 9 8 8 8 8 8
16 16 16 16 16 16 16 16 15 15 15 15 15 15 15 14 14 14 14 14 14 14 14 14 14 14 14 14 14 14 13 13 13 13 12 12 12 12 12 12 12 12 11 11 11 11 10 10 10 10 10 10 10 10 9 9 9 9 9 9 9 9 9 8 8 8 8 8 8
16 16 16 16 16 16 16 16 15 15 15 15 15 15 15 15 15 14 14 14 14 14 14 14 14 14 14 14 14 13 13 13 13 13 12 12 12 12 12 11 11 11 11 11 11 10 10 10 10 10 10 10 10 10 9 9 9 9 9 9 9 9 8 8 8 8 8 7 7
16 16 16 16 16 16 15 15 15 15 15 15 15 15 15 14 14 14 14 14 14 14 14 14 14 14 13 13 13 13 13 13 13 12 12 12 12 11 11 11 11 11 11 11 11 10 10 10 10 10 10 9 9 9 9 9 9 9 9 9 9 9 8 8 8 8 8 7 7
16 16 16 16 16 15 15 15 15 15 15 15 15 14 14 14 14 14 14 14 14 14 14 14 14 13 13 13 13 13 13 13 13 12 12 12 11 11 11 11 11 11 11 11 10 10 10 10 10 9 9 9 9 9 9 9 9 9 9 9 9 8 8 8 8 8 8 7 7
16 16 16 16 15 15 15 15 15 14 14 14 14 14 14 14 14 14 14 14 14 14 14 13 13 13 13 13 13 13 13 13 12 12 12 11 11 11 11 11 11 11 11 11 10 10 10 10 10 9 9 9 9 9 9 9 9 9 9 9 8 8 8 8 8 8 8 7 7
16 16 15 15 15 15 15 14 14 14 14 14 14 14 14 14 14 14 14 14 14 13 13 13 13 13 13 13 13 13 13 12 12 12 11 11 11 11 11 11 11 11 11 11 10 10 10 10 10 9 9 9 9 9 9 9 9 9 9 9 8 8 8 8 8 8 7 7 7
15 15 15 15 15 14 14 14 14 14 14 14 14 14 14 14 14 14 13 13 13 13 13 13 13 13 12 12 12 12 12 12 12 11 11 11 11 11 11 11 11 11 11 10 10 10 10 10 10 9 9 9 9 9 9 9 9 9 8 8 8 8 8 8 8 8 7 7 7
15 15 15 14 14 14 14 14 14 14 14 14 14 14 14 14 13 13 13 13 13 13 13 13 12 12 12 12 12 12 12 12 11 11 11 11 11 11 11 11 11 11 11 10 10 10 10 10 9 9 9 9 9 9 9 9 8 8 8 8 8 8 8 8 8 7 7 7 7
15 14 14 14 14 14 14 14 14 14 14 14 14 13 13 13 13 13 13 13 12 12 12 12 12 12 12 12 12 12 11 11 11 11 11 11 11 11 11 11 11 11 10 10 10 10 10 10 9 9 9 9 9 9 9 9 8 8 8 8 8 8 8 8 7 7 7 7 7
14 14 14 14 14 14 13 13 13 13 13 13 13 13 13 13 13 13 13 12 12 12 12 12 12 12 12 12 11 11 11 11 11 11 11 11 11 11 11 11 11 11 10 10 10 10 10 9 9 9 9 9 9 9 9 9 8 8 8 8 8 8 7 7 7 7 7 7 6
14 14 14 14 13 13 13 13 13 13 13 13 13 13 13 13 13 12 12 12 12 12 12 12 12 12 12 12 11 11 11 11 11 11 11 11 11 11 11 11 10 10 10 10 10 10 10 9 9 9 9 9 9 9 9 8 8 8 8 8 8 7 7 7 7 7 7 7 6
14 13 13 13 13 13 13 13 13 13 13 13 13 13 12 12 12 12 12 12 12 12 12 12 12 12 11 11 11 11 11 11 11 11 10 10 10 10 10 10 10 10 10 10 10 10 9 9 9 9 9 9 9 8 8 8 8 8 8 8 7 7 7 7 7 7 7 6 6
13 13 13 13 13 13 13 13 13 13 13 13 12 12 12 12 12 12 12 12 12 12 12 12 12 11 11 11 11 11 11 10 10 10 10 10 10 10 10 10 10 10 10 10 9 9 9 9 9 9 9 8 8 8 8 8 8 8 7 7 7 7 7 7 7 7 7 6 6
13 13 13 13 13 13 13 13 13 13 12 12 12 12 12 12 12 12 12 12 12 12 11 11 11 11 11 11 11 11 10 10 10 10 10 10 10 10 10 10 10 10 9 9 9 9 9 9 9 9 9 8 8 8 8 8 8 7 7 7 7 7 7 7 7 6 6 6 6
13 13 13 13 13 12 12 12 12 12 12 12 12 12 12 12 12 12 11 11 11 11 11 11 11 11 11 11 11 10 10 10 10 10 10 10 10 10 10 10 9 9 9 9 9 9 9 9 9 9 9 8 8 8 8 7 7 7 7 7 7 7 7 6 6 6 6 6 6
13 13 13 13 12 12 12 12 12 12 12 12 11 11 11 11 11 11 11 11 11 11 11 11 11 10 10 10 10 10 10 10 10 10 10 10 10 10 10 9 9 9 9 9 9 9 9 9 9 9 8 8 8 8 8 7 7 7 7 7 7 6 6 6 6 6 6 6 5
12 12 12 12 12 12 12 12 12 12 11 11 11 11 11 11 11 11 11 11 11 11 10 10 10 10 10 10 10 10 10 10 10 10 10 10 10 10 9 9 9 9 9 9 9 9 9 9 9 9 8 8 8 8 7 7 7 7 7 6 6 6 6 6 6 6 6 5 5
12 12 12 12 12 12 12 11 11 11 11 11 11 11 11 11 11 11 11 11 10 10 10 10 10 10 10 10 10 10 10 10 10 10 10 10 9 9 9 9 9 9 10 10 10 9 9 9 9 8 8 8 8 7 7 7 7 7 6 6 6 6 6 6 5 5 5 5 5
12 12 12 12 11 11 11 11 11 11 11 11 11 11 11 10 10 10 10 10 10 10 10 10 10 10 10 10 10 10 10 10 10 9 9 9 9 9 9 9 9 10 10 10 9 9 9 9 8 8 7 7 7 7 7 7 6 6 6 6 6 6 5 5 5 5 5 5 4
11 11 11 11 11 11 11 11 11 10 10 10 10 10 10 10 10 10 10 10 10 10 10 9 9 9 9 9 9 9 9 9 9 9 9 9 9 9 9 9 9 9 9 9 9 9 8 8 8 7 7 7 7 6 6 6 6 6 6 5 5 5 5 5 5 4 4 4 4
10 10 10 10 10 10 10 10 10 10 10 10 10 10 10 10 10 10 10 9 9 9 9 9 9 9 9 9 9 9 9 9 9 9 9 9 9 9 9 9 9 9 9 9 9 8 8 8 8 7 7 7 6 6 6 6 6 5 5 5 5 5 5 4 4 4 4 4 4
10 10 10 10 10 10 10 10 10 10 10 10 10 10 9 9 9 9 9 9 9 9 9 9 9 9 9 9 9 9 9 9 9 9 9 9 9 9 9 9 9 9 9 8 8 8 8 7 7 7 7 7 6 6 6 6 5 5 5 5 5 4 4 4 4 4 4 4 3
9 9 9 9 9 9 9 9 9 9 9 9 9 9 9 9 9 9 9 9 9 9 9 9 9 9 9 9 9 9 9 9 9 9 9 9 9 9 9 8 8 8 8 8 8 8 7 7 7 7 7 6 6 6 6 6 5 5 5 5 5 4 4 4 4 4 4 4 3
9 9 9 9 9 9 9 9 9 9 9 9 9 9 9 9 9 9 9 9 9 9 9 8 8 8 8 9 9 9 9 9 9 8 8 8 8 8 8 8 8 8 8 8 8 7 7 7 7 6 6 6 6 6 5 5 5 5 5 5 5 5 4 4 4 4 4 3 3
8 8 8 9 9 9 8 8 8 8 8 8 8 8 8 8 8 8 8 8 8 8 8 8 8 8 9 9 9 9 8 8 8 8 8 8 8 8 8 8 8 8 8 7 7 7 6 6 6 6 6 5 5 5 5 5 5 5 5 5 5 5 4 4 4 4 4 4 3
8 8 8 8 8 8 8 8 8 8 8 8 8 8 8 8 8 8 8 8 8 8 8 8 8 8 8 8 8 8 8 8 8 8 8 8 7 7 7 7 7 7 7 7 6 6 6 6 6 5 5 5 5 5 5 5 5 5 5 5 5 5 4 4 4 4 4 4 3
7 8 8 8 8 8 8 8 8 8 8 8 8 8 8 8 8 8 8 8 8 8 8 8 8 8 8 8 8 8 8 8 8 8 7 7 7 7 7 7 7 7 6 6 6 6 6 6 5 5 5 5 5 5 5 5 5 5 5 5 4 4 4 4 4 4 4 4 3
7 7 7 7 8 8 8 8 8 8 8 8 8 8 8 8 8 8 8 8 8 8 8 8 8 8 8 8 8 8 7 7 7 7 7 7 7 6 6 6 6 6 6 6 6 6 5 5 5 5 5 5 5 5 5 5 5 4 4 4 4 4 4 4 4 4 4 3 3
7 7 7 7 7 7 7 7 8 8 8 8 8 8 8 8 8 8 8 8 8 8 8 8 8 8 8 8 7 7 7 7 7 7 7 6 6 6 6 6 6 6 6 5 5 5 5 5 5 5 5 5 4 4 4 4 4 4 4 4 4 4 4 4 4 3 3 3 3
7 7 7 7 7 7 7 7 7 8 8 8 8 8 8 8 8 8 8 7 7 7 7 7 7 7 7 7 7 7 7 7 6 6 6 6 6 6 5 5 5 5 5 5 5 5 5 5 5 4 4 4 4 4 4 4 4 4 4 4 4 4 3 3 3 3 3 3 3
7 7 7 7 7 7 7 7 7 7 8 7 7 7 7 7 7 7 7 7 7 7 7 7 7 7 7 6 6 6 6 6 6 6 5 5 5 5 5 5 5 5 5 5 5 5 4 4 4 4 4 4 4 4 4 4 4 4 3 3 3 3 3 3 3 3 3 3 2
7 7 7 7 7 7 7 7 7 7 7 7 7 7 7 7 7 7 7 7 7 7 7 7 6 6 6 6 6 6 6 5 5 5 5 5 5 5 5 5 5 5 5 4 4 4 4 4 4 4 4 4 4 4 4 4 3 3 3 3 3 3 3 3 3 3 2 2 2
7 7 7 7 7 7 7 7 7 7 7 7 7 7 7 7 7 7 7 7 6 6 6 6 6 6 5 5 5 5 5 5 5 5 5 5 5 5 4 4 4 4 4 4 4 4 4 4 4 3 3 3 3 3 3 3 3 3 3 3 3 3 3 3 2 2 2 2 2
Height
807 808 809 810 811 811 812 812 813 813 814 814 815 815 816 817 818 818 819 820 820 821 822 823 823 824 825 826 827 828 829 829 830 831 832 832 833 834 834 835 835 836 836 837 837 837 837 837 838 838 838 839 839 839 839 840 840 840 840 840 840 840 840 840 840 840 840 839 839
806 807 808 809 810 810 811 812 812 812 813 813 814 814 815 815 816 817 818 818 819 820 821 821 822 823 824 825 826 826 827 828 829 829 830 831 831 832 833 834 834 834 835 835 835 836 836 836 836 837 837 837 838 838 838 839 839 839 839 839 839 839 839 839 839 839 839 839 838
805 806 807 808 809 810 810 810 811 811 812 812 813 814 814 815 815 816 816 817 818 819 820 820 821 822 823 824 824 825 826 827 827 828 829 829 830 830 831 832 832 833 834 834 834 834 835 835 835 835 836 836 836 837 837 837 837 838 838 838 838 838 838 838 838 838 837 837 837
804 805 806 807 807 808 808 809 810 810 811 811 812 813 814 814 815 815 815 816 817 818 819 820 820 821 822 823 824 824 825 825 826 827 827 828 828 829 829 830 831 832 832 833 833 834 834 834 834 834 835 835 835 835 836 836 836 836 836 836 836 836 836 836 836 836 836 836 835
803 804 805 806 806 807 807 808 808 809 810 810 811 812 813 813 814 814 815 815 816 817 818 819 820 820 821 822 822 823 824 824 825 825 826 826 827 828 828 829 829 830 831 832 832 833 833 833 834 834 834 834 834 834 835 835 835 835 835 835 835 835 835 835 835 835 835 834 834
802 803 804 805 805 806 806 807 807 808 809 810 810 811 811 812 813 813 814 814 815 815 817 818 819 819 820 820 821 822 822 823 823 824 824 825 826 826 827 828 829 829 830 831 831 832 832 833 833 833 833 833 834 834 834 834 834 834 834 834 834 834 834 834 834 834 833 833 833
802 803 803 804 805 805 805 806 806 807 808 808 809 809 810 810 811 811 812 813 814 815 815 816 817 818 818 819 820 820 821 821 822 822 823 824 824 825 826 827 827 828 829 829 830 831 831 832 832 832 832 832 833 833 834 834 834 833 833 833 833 833 833 832 832 832 832 832 832
801 802 803 803 804 804 804 805 805 806 807 807 807 808 808 809 810 810 811 812 813 813 814 815 815 816 816 817 818 818 819 820 820 821 822 823 823 824 825 825 826 827 828 829 829 830 830 831 831 831 831 832 832 832 832 833 832 832 832 832 832 832 831 831 831 831 831 830 830
801 801 802 802 802 803 803 804 804 805 805 805 806 806 807 808 809 810 810 811 811 812 813 813 814 815 815 815 816 817 817 818 819 820 820 821 822 823 824 824 825 826 827 827 828 829 829 830 830 830 830 831 831 831 831 832 831 831 831 831 831 830 830 830 830 830 829 829 829
800 800 800 801 801 802 802 803 803 804 804 804 805 806 807 807 808 809 809 810 810 811 812 812 813 813 814 814 815 815 816 817 818 818 819 820 820 821 822 823 824 824 825 826 827 828 829 829 829 829 830 830 830 830 830 831 830 830 830 830 830 829 829 829 829 829 828 828 827
799 799 800 800 800 801 801 802 802 803 803 804 805 805 806 807 807 808 809 809 810 810 810 811 811 812 813 813 814 815 815 816 817 817 818 819 819 820 821 822 822 823 824 825 826 827 828 828 828 829 829 829 829 829 829 829 829 829 829 829 829 829 828 828 828 827 827 826 826
798 798 799 799 800 800 800 801 802 802 803 804 804 805 805 806 807 807 808 809 809 809 810 810 811 811 812 813 813 814 815 815 815 816 817 817 818 819 820 820 821 822 823 824 825 826 826 827 827 827 828 828 828 829 829 829 829 828 828 828 828 827 827 826 826 826 825 825 824
797 798 798 799 799 800 800 800 801 802 802 803 804 805 805 806 806 807 807 808 808 808 809 810 810 811 812 812 813 813 814 814 815 815 816 816 817 818 819 820 820 821 822 823 824 824 825 826 826 826 827 827 827 827 827 827 827 827 827 826 826 826 825 825 824 824 824 824 823
797 797 798 798 799 799 800 800 801 801 802 803 804 804 805 805 806 806 807 807 808 808 809 810 810 811 811 812 812 813 813 813 814 815 815 815 816 817 818 819 819 820 821 822 823 824 824 824 825 825 825 826 826 826 826 826 826 826 825 825 825 824 824 823 823 823 823 822 821
797 797 797 798 798 799 799 800 800 801 802 802 803 804 805 805 805 806 806 807 807 808 809 809 810 810 811 811 812 812 812 813 813 814 814 815 815 816 817 818 819 820 820 821 822 823 823 823 824 824 824 825 825 825 825 825 825 824 824 824 823 823 822 822 822 821 821 820 820
796 796 797 797 798 798 799 800 800 801 801 802 803 804 804 805 805 806 806 807 807 808 808 809 809 810 810 811 811 811 812 812 813 813 814 814 815 815 816 817 818 819 820 820 821 821 822 822 823 823 824 824 824 824 824 824 823 823 823 822 822 821 821 820 820 820 819 819 818
796 796 796 797 797 798 799 799 800 801 801 802 803 803 804 804 805 805 806 806 807 807 808 808 809 809 810 810 810 811 811 811 812 812 813 813 814 815 815 816 817 818 819 819 820 820 821 821 822 822 822 822 822 822 822 822 822 821 821 820 820 820 819 819 819 818 818 817 816
795 796 796 797 797 798 799 799 800 800 801 802 802 803 803 804 804 805 805 806 806 807 807 808 808 809 809 809 810 810 810 811 811 812 812 813 814 815 815 816 817 817 818 819 819 820 820 820 821 821 821 821 821 821 821 820 820 820 819 819 818 818 818 817 817 816 816 815 814
795 795 796 796 797 798 798 799 800 800 801 801 802 802 803 803 804 804 805 805 805 806 806 807 807 808 808 809 809 810 810 810 811 812 812 813 814 814 815 816 816 817 817 818 818 819 819 819 820 820 820 820 820 819 819 819 818 818 817 817 817 816 816 815 815 815 814 813 813
795 795 795 796 797 798 798 799 800 800 800 801 801 802 802 803 803 804 804 804 805 805 805 806 806 807 807 808 809 809 810 810 811 811 812 813 814 814 815 815 816 816 817 817 817 818 818 818 818 818 818 818 818 817 817 817 816 816 816 815 815 815 814 814 813 813 812 811 811
794 795 795 796 796 797 798 799 799 800 800 800 801 801 802 802 802 803 803 803 804 805 805 805 806 806 807 807 808 809 809 810 811 811 812 813 813 814 814 815 815 816 816 816 816 817 817 817 817 817 817 816 816 816 815 815 815 814 814 814 813 813 812 812 811 811 810 810 809
794 795 795 795 796 797 798 798 799 799 800 800 800 801 801 802 802 802 803 803 804 804 805 805 806 806 807 807 808 809 809 810 810 811 812 812 813 813 814 814 815 815 815 815 815 815 815 815 815 815 815 815 815 814 814 813 813 812 812 811 811 810 810 810 809 809 808 808 807
794 794 795 795 796 796 797 798 798 799 799 800 800 800 801 801 802 802 803 803 804 804 805 805 806 806 807 807 808 809 809 810 810 811 812 812 813 813 813 814 814 814 814 814 814 814 814 814 814 814 814 813 813 812 812 812 811 811 810 810 809 809 808 808 807 807 806 806 806
794 794 795 795 795 796 797 797 798 798 799 799 800 800 801 801 801 802 802 803 803 804 805 805 806 806 807 808 808 809 809 810 810 811 811 812 812 812 813 813 813 813 813 813 813 813 813 813 813 813 812 812 811 811 810 810 810 809 808 808 807 807 806 806 805 805 805 804 804
793 794 794 795 795 795 796 797 797 798 798 799 800 800 800 801 801 802 802 803 803 804 805 805 806 806 807 808 808 809 809 810 810 810 811 811 811 812 812 812 812 812 812 812 812 812 812 812 812 811 811 810 810 809 809 808 808 807 807 806 805 805 804 804 803 803 803 802 802
793 793 794 794 795 795 796 796 797 798 798 799 799 800 800 801 801 801 802 803 803 804 805 805 806 807 807 808 808 809 809 809 810 810 810 811 811 811 811 811 811 811 811 811 811 811 811 811 810 810 809 809 808 808 807 806 806 805 805 804 804 803 802 801 801 800 800 800 800
793 793 794 794 795 795 796 796 797 797 798 799 799 800 800 800 801 802 802 803 804 804 805 805 806 807 807 808 808 808 809 809 809 810 810 810 810 810 810 810 810 810 810 810 810 810 810 810 809 809 808 807 806 806 805 805 804 803 803 802 802 801 800 800 799 798 798 798 798
793 793 794 794 795 795 796 796 797 797 798 799 799 800 800 801 801 802 802 803 804 805 805 805 806 807 807 807 808 808 808 809 809 809 810 810 810 810 810 810 810 810 809 809 809 809 808 808 808 807 807 806 805 804 803 803 802 801 801 800 800 799 798 798 797 796 796 796 795
793 793 794 794 795 795 796 796 797 797 798 798 799 800 800 801 801 802 803 804 804 805 805 806 806 806 807 807 807 808 808 809 809 809 809 809 809 809 809 809 808 808 808 808 808 807 807 806 806 806 805 805 804 803 802 801 800 799 799 798 797 796 796 795 795 795 794 794 794
793 793 794 794 795 795 796 796 797 797 798 799 799 800 800 801 802 803 803 804 804 805 805 806 806 806 807 807 807 808 808 808 808 809 809 808 808 808 808 808 807 807 807 807 806 806 806 805 805 804 804 804 803 802 801 800 799 798 797 796 795 795 794 793 793 793 792 792 792
793 794 794 795 795 795 796 796 797 798 798 799 800 800 801 802 802 803 804 804 805 805 805 806 806 806 807 807 807 808 808 808 808 808 808 808 807 807 807 807 806 806 806 805 805 805 805 804 803 803 802 802 801 800 800 798 797 796 795 794 794 793 792 792 791 791 790 790 790
793 794 794 795 795 796 796 797 797 798 799 799 800 801 801 802 803 803 804 804 805 805 805 806 806 806 807 807 807 807 807 807 807 807 807 807 807 806 806 805 805 805 805 804 804 803 803 802 802 801 801 800 800 799 798 797 796 795 794 793 792 792 791 790 790 789 789 788 788
794 794 795 795 795 796 797 797 798 799 799 800 800 801 802 802 803 803 804 804 805 805 805 806 806 806 806 807 807 807 807 807 807 807 806 806 806 805 805 804 804 803 803 803 802 802 801 801 800 800 799 799 798 797 796 795 794 793 792 791 790 790 790 789 788 787 787 786 786
794 795 795 796 796 797 797 798 799 799 800 800 801 801 802 802 803 803 804 804 805 805 805 805 806 806 806 806 806 806 806 806 806 806 805 805 805 804 803 803 802 802 802 802 801 801 800 800 799 798 798 797 796 795 794 793 792 791 790 790 789 788 788 787 786 785 785 785 784
795 795 796 796 797 797 798 799 799 800 800 801 801 802 802 803 803 804 804 804 805 805 805 805 805 806 806 806 806 805 805 805 805 805 804 804 804 803 802 801 801 801 801 801 800 800 799 798 798 797 796 795 795 794 792 791 790 789 788 787 787 786 785 785 784 784 783 783 782
795 796 796 797 797 798 799 799 800 800 801 801 802 802 802 803 803 804 804 805 805 805 805 805 805 805 805 805 805 805 805 804 804 804 803 803 803 802 801 800 800 800 800 800 799 798 798 797 796 795 795 794 793 792 790 790 788 787 786 785 785 784 783 783 782 782 781 781 780
796 797 797 798 798 799 799 800 800 801 801 801 802 802 803 803 804 804 804 805 805 805 805 805 805 805 805 805 804 804 804 804 803 803 802 802 801 801 800 799 799 798 798 798 798 797 796 795 795 794 793 792 791 790 789 788 786 785 784 783 782 782 781 781 780 780 779 779 779
797 798 798 798 799 800 800 800 801 801 801 802 802 803 803 804 804 804 804 805 805 805 805 804 804 804 804 804 803 803 803 803 802 802 801 801 800 800 799 798 797 797 797 797 796 795 795 794 793 793 792 791 790 788 787 786 785 783 782 781 780 780 779 779 778 778 777 777 777
798 798 799 799 800 800 800 801 801 802 802 803 803 803 804 804 804 804 804 804 804 804 804 804 803 803 803 803 802 802 801 801 801 801 800 800 799 799 798 797 796 796 795 795 795 794 794 793 792 791 790 790 788 787 785 784 783 782 780 780 779 778 777 777 776 776 775 775 775
799 799 800 800 800 801 801 801 802 802 803 803 803 804 804 804 804 804 804 804 804 803 803 803 803 802 802 802 801 801 800 800 800 800 800 799 799 798 797 797 795 795 795 794 794 793 792 791 790 790 789 788 787 785 784 783 781 780 779 778 777 776 775 775 775 774 773 772 772
800 800 800 800 801 801 802 802 803 803 803 803 804 804 804 804 804 804 803 803 803 803 802 802 802 801 801 801 800 800 800 799 799 799 799 798 798 797 796 796 795 794 793 793 792 792 791 790 789 789 788 787 785 784 783 782 780 778 777 776 775 775 773 772 772 772 771 770 770
Wind_Speed
30 30 30 31 31 31 30 30 29 30 30 31 31 31 32 32 32 32 33 34 34 34 35 35 34 34 33 33 33 32 32 32 32 31 31 30 30 29 27 26 25 24 23 23 23 22 22 21 20 19 19 18 18 18 17 16 14 13 12 12 11 10 10 10 10 10 10 10 10
30 30 30 30 30 30 30 30 29 29 30 31 32 32 33 33 32 32 33 34 34 34 34 34 33 33 33 32 32 32 32 32 32 32 31 31 30 29 28 27 26 25 24 24 24 24 23 22 21 21 20 20 19 19 18 16 15 14 13 12 11 11 10 11 10 10 10 10 11
30 30 30 30 30 30 30 30 30 30 30 31 32 33 33 33 33 33 33 34 34 34 33 33 32 32 32 31 31 31 31 32 32 32 32 32 31 31 30 28 27 26 26 25 25 25 24 23 22 22 21 21 21 20 19 17 15 14 13 13 12 11 11 11 11 11 11 11 12
30 30 30 30 30 30 30 31 31 31 31 31 31 32 33 33 33 33 33 33 33 33 33 32 31 31 30 30 30 31 31 31 31 32 32 32 32 31 31 29 28 27 27 26 26 25 24 23 23 22 22 22 21 20 19 17 16 15 14 13 12 12 12 12 11 11 11 12 13
30 30 30 30 30 31 31 31 31 31 31 31 31 32 32 33 33 33 32 32 32 32 32 31 30 30 29 29 30 30 30 31 31 32 32 33 33 32 31 30 29 28 27 27 27 26 25 24 23 23 22 22 21 20 18 17 16 15 14 13 12 12 12 12 12 12 12 13 13
29 29 30 30 30 30 31 31 31 31 31 31 31 32 32 32 33 32 32 32 32 32 31 30 29 29 29 29 29 29 30 30 31 31 32 33 33 32 32 31 29 28 28 27 27 26 25 25 24 23 23 22 21 19 18 16 16 15 14 14 13 13 13 13 13 13 13 14 15
28 29 29 29 30 30 30 30 30 31 31 31 32 32 32 33 33 33 33 32 32 31 30 29 29 29 29 29 29 29 29 30 30 31 32 32 32 32 32 31 30 29 28 27 27 26 26 25 24 24 23 22 21 20 18 17 16 15 15 14 14 13 13 14 14 14 14 15 16
27 27 28 29 30 30 30 30 30 30 30 31 32 32 33 33 33 33 33 32 31 30 30 29 29 29 29 29 29 29 29 29 30 30 31 31 32 32 32 31 30 29 28 27 27 26 26 25 25 25 24 23 22 20 19 18 17 16 15 15 14 14 14 14 15 15 16 16 17
25 26 27 29 29 30 30 30 30 30 30 31 32 32 32 32 32 32 32 31 31 30 30 29 29 29 29 29 28 28 28 28 29 29 30 31 31 32 31 31 30 29 28 27 27 26 26 26 25 25 24 23 22 21 19 18 17 17 16 16 15 15 15 15 16 16 17 17 18
25 26 27 28 28 29 29 29 29 29 30 30 31 31 31 31 31 31 31 31 30 30 29 29 29 29 29 29 28 28 28 27 28 28 29 30 31 31 31 30 30 29 28 27 27 26 26 26 26 25 25 24 22 21 19 18 18 17 17 16 16 16 16 16 17 17 18 18 19
24 25 26 26 27 27 27 27 28 28 29 29 29 29 29 30 30 30 30 29 29 29 29 29 29 29 29 28 28 27 27 27 27 27 28 29 30 30 30 30 29 29 28 27 27 26 26 26 26 26 25 24 23 21 20 19 18 18 18 17 17 17 17 17 17 18 18 19 20
23 23 24 24 24 25 25 26 26 27 27 27 28 28 28 28 28 28 28 28 29 29 29 28 28 28 28 28 27 27 26 26 27 27 28 29 29 30 29 29 29 28 27 27 26 26 26 26 26 25 25 24 23 22 21 20 19 19 19 18 18 18 18 18 18 18 19 20 21
22 22 22 22 22 23 24 24 25 26 26 26 26 26 27 27 27 27 27 28 28 28 28 28 27 27 27 27 26 26 26 26 26 27 27 28 29 29 29 29 28 27 27 26 26 26 26 26 26 25 25 24 23 22 21 21 20 20 19 19 19 19 20 20 19 19 20 20 22
21 21 20 20 21 21 22 23 24 24 25 25 25 25 25 26 26 26 27 27 27 27 27 26 26 26 26 26 26 26 26 26 26 26 27 27 28 28 28 28 27 27 26 25 25 25 25 26 25 25 24 24 23 22 22 21 21 20 20 20 20 21 21 21 20 20 20 22 23
20 20 20 20 20 21 21 22 23 23 23 23 24 24 24 24 25 25 26 26 26 26 25 25 25 25 25 25 25 25 25 26 26 26 27 27 28 28 28 27 27 26 25 25 25 25 25 25 25 24 24 23 23 22 22 21 21 21 21 21 22 22 22 22 21 21 22 22 23
20 20 20 20 20 20 20 21 22 22 22 22 22 23 23 23 24 24 24 25 25 24 24 24 24 24 24 25 25 25 25 25 26 26 26 27 27 27 27 27 26 25 25 25 24 25 25 24 24 24 23 23 23 22 22 22 22 22 22 23 23 23 23 23 22 22 23 23 24
20 20 20 20 20 20 20 20 21 21 21 21 21 22 22 22 23 23 24 24 24 24 24 24 24 24 24 24 24 25 25 25 25 26 26 26 26 26 26 26 25 25 24 24 24 24 24 24 24 23 23 23 23 22 22 22 23 23 24 24 24 24 24 24 24 24 24 25 26
20 20 20 20 20 20 20 20 20 20 20 20 21 21 21 21 22 22 23 23 23 23 23 24 24 24 24 24 24 24 24 24 25 25 25 25 25 25 25 25 24 24 23 23 23 23 23 23 23 23 23 23 23 23 23 23 24 25 25 25 25 25 25 25 25 25 25 26 27
20 20 20 20 20 20 20 20 20 20 20 20 20 20 20 21 21 21 22 22 23 23 23 23 23 24 24 24 24 24 24 24 24 24 24 24 24 24 23 23 22 22 22 22 22 22 23 23 23 23 23 23 23 24 24 25 25 26 26 26 27 27 27 27 26 26 27 27 28
20 20 20 20 20 20 20 20 20 20 20 20 20 20 20 20 20 21 22 22 23 23 23 23 23 23 23 23 23 23 23 23 22 22 22 22 22 22 22 21 21 21 21 21 21 22 22 22 22 23 23 24 24 25 25 26 27 27 27 28 28 28 28 28 28 28 28 28 29
20 19 19 19 19 19 19 19 19 20 20 20 20 20 20 20 20 20 21 22 22 22 22 22 22 22 22 22 22 22 22 21 21 21 21 20 20 20 20 20 20 20 20 20 21 21 21 22 22 23 23 24 25 26 27 27 28 28 29 29 29 29 29 29 29 29 29 30 30
19 19 18 18 18 18 18 18 18 19 19 19 19 19 19 19 19 19 20 20 21 21 21 21 21 21 21 21 21 21 21 20 20 19 19 19 19 19 19 19 19 19 20 20 20 21 21 21 22 23 24 25 26 27 28 28 29 30 30 30 30 30 30 30 30 31 31 31 31
18 18 17 17 16 16 16 17 17 18 18 18 18 18 18 18 18 18 19 19 20 20 20 20 20 20 19 19 19 19 19 19 19 18 18 18 18 18 18 18 18 19 19 19 20 20 21 21 22 23 24 25 26 28 28 29 30 30 31 31 31 31 32 32 32 32 32 32 32
16 16 16 15 15 15 15 16 17 17 17 17 17 17 17 17 17 18 18 18 18 19 19 18 18 18 18 18 18 18 18 17 17 17 17 18 18 18 18 18 18 18 18 19 19 19 20 21 22 23 25 26 27 28 29 30 30 31 31 32 32 32 33 33 33 33 33 33 33
14 14 14 14 13 14 14 15 16 16 16 16 16 16 16 16 17 17 17 17 17 17 17 17 16 16 16 16 16 16 16 16 16 16 16 17 17 17 17 17 17 17 18 18 18 19 20 21 22 23 24 26 27 28 29 30 30 31 31 32 32 33 34 34 34 34 34 33 33
11 11 11 11 11 12 13 14 14 15 15 15 15 15 15 16 16 16 16 16 16 16 15 15 15 14 14 14 14 14 15 15 15 15 15 15 15 15 16 16 16 16 17 17 18 18 19 21 22 23 24 26 27 28 29 29 30 30 31 32 32 33 33 34 34 34 33 33 33
8 8 8 8 9 10 11 12 13 13 14 14 14 15 15 15 15 15 15 15 15 15 14 14 13 13 13 13 14 14 14 14 14 14 14 14 14 15 15 15 15 15 16 16 17 18 19 21 22 23 24 26 27 27 28 29 30 30 31 31 32 32 33 33 34 34 33 33 32
5 5 5 6 7 8 9 10 11 12 13 13 14 14 14 14 14 14 14 14 14 13 13 13 13 13 13 13 13 14 14 13 13 13 13 13 13 14 14 14 15 15 16 17 18 19 20 21 22 23 24 25 26 27 28 29 30 30 31 31 32 32 32 32 33 33 33 32 32
3 4 4 5 6 7 8 9 10 11 12 12 13 13 13 13 13 13 13 13 13 13 12 12 13 13 13 13 13 13 13 13 12 12 12 12 13 13 14 14 15 16 17 18 19 20 21 22 23 24 24 24 25 26 27 29 29 30 30 31 31 31 32 32 32 32 32 32 31
2 3 3 4 5 6 8 9 10 10 11 11 12 12 12 12 12 12 12 12 12 12 12 12 12 12 13 13 12 12 12 12 12 12 12 12 13 14 14 15 17 18 18 19 20 21 22 23 24 24 25 25 25 26 27 28 28 29 30 30 31 31 31 32 32 32 32 32 32
2 3 3 4 6 7 7 8 9 9 10 10 10 10 11 10 10 10 10 10 10 10 11 11 11 12 12 12 12 11 11 11 11 11 12 12 13 15 16 17 18 19 20 20 21 22 23 23 24 25 25 25 25 26 26 27 28 29 29 30 31 31 31 31 32 32 32 32 32
2 3 4 5 6 7 7 8 8 8 8 9 8 9 8 8 8 8 8 8 9 9 10 10 10 10 10 10 10 10 10 10 10 11 12 13 15 16 17 19 20 21 21 22 22 23 23 24 24 25 25 25 25 25 26 27 28 29 30 31 31 31 32 32 32 32 32 32 32
3 4 5 6 7 7 7 7 7 7 7 7 6 6 6 7 7 7 7 7 8 8 8 9 9 8 8 8 8 9 9 10 11 12 14 15 16 18 19 20 21 22 22 22 23 23 24 24 24 25 25 24 25 25 26 27 28 29 30 31 31 32 32 32 33 33 33 33 32
4 5 6 6 7 7 7 7 6 5 5 5 5 5 5 5 6 6 6 6 6 6 6 6 6 6 7 7 8 9 11 12 13 14 15 16 17 19 20 21 22 22 22 22 23 23 24 24 24 24 24 25 25 25 26 28 29 30 31 31 32 32 33 33 33 33 33 33 32
6 6 7 7 7 7 7 6 5 5 4 4 4 4 4 5 5 5 5 5 5 5 5 5 6 6 7 8 10 11 13 14 15 16 16 17 18 19 20 21 21 21 21 22 22 23 24 24 24 24 25 25 26 26 27 28 29 30 31 32 32 33 33 33 33 33 32 32 32
7 8 8 8 8 7 7 6 5 4 4 4 4 3 4 4 4 4 4 4 4 4 5 5 6 8 9 10 12 13 14 15 16 16 17 17 18 19 20 21 21 22 21 22 22 23 24 24 25 25 25 26 26 27 28 29 29 30 31 32 32 32 32 32 32 32 31 31 31
9 9 9 9 8 8 7 6 5 4 4 4 3 3 3 3 3 3 2 3 3 4 5 7 8 9 11 12 13 13 14 15 15 16 17 17 18 19 20 21 22 23 23 23 23 24 25 25 26 25 25 26 27 27 28 29 30 30 31 31 32 32 32 32 32 31 31 30 30
10 9 9 9 8 8 7 6 5 4 4 4 3 3 2 1 1 1 2 3 5 6 8 9 10 11 12 12 13 14 14 15 15 16 17 18 19 20 21 22 24 24 24 24 25 25 26 26 26 26 25 26 27 28 29 29 30 30 30 31 31 32 32 32 31 31 31 30 30
10 9 9 8 8 8 7 6 5 5 4 4 3 3 1 1 1 3 4 6 7 8 9 10 11 12 12 13 14 15 15 16 16 17 18 19 20 21 22 23 25 25 26 26 26 26 27 27 27 27 26 26 27 28 28 29 29 30 30 31 31 31 31 31 31 30 30 30 29
10 10 9 9 8 8 8 7 6 5 5 4 3 1 1 2 3 5 6 7 8 9 10 11 12 12 13 13 15 16 17 18 18 18 19 20 21 22 23 24 25 26 26 26 26 27 27 27 27 27 26 26 27 27 28 29 29 30 30 30 30 30 30 30 30 29 29 29 29
11 11 10 10 9 8 8 7 6 5 3 2 1 1 3 4 5 5 6 7 8 9 10 11 12 13 13 14 15 16 18 19 19 19 20 21 22 22 23 24 25 26 26 26 26 26 26 26 26 26 25 25 26 27 27 28 28 29 29 30 29 29 29 30 29 29 29 29 28
Wind_Direction
205 204 205 206 207 208 208 209 210 210 209 207 205 204 204 204 205 206 208 209 210 211 213 215 218 220 221 221 220 220 220 220 221 222 223 224 225 226 226 227 226 225 223 221 221 222 223 224 223 223 223 223 223 224 225 225 226 228 230 233 236 240 246 251 256 260 263 265 269
206 206 207 208 209 211 211 212 212 212 212 211 209 208 208 207 208 209 210 211 212 214 216 218 220 221 222 223 222 221 221 221 221 223 224 224 225 226 227 227 227 226 224 223 223 223 224 224 223 223 223 223 224 224 225 225 226 228 231 234 238 242 247 253 258 263 266 269 271
208 208 208 209 211 213 214 214 214 214 214 213 212 211 211 211 211 212 212 214 215 216 217 219 221 223 224 224 224 223 223 223 223 224 224 225 225 226 227 227 227 226 225 224 225 225 226 225 225 224 224 224 224 224 224 224 226 228 232 236 240 244 248 255 260 264 267 270 271
209 209 210 211 213 215 216 217 217 217 217 216 214 213 213 213 213 214 215 216 216 217 218 220 223 225 226 227 226 226 225 226 226 226 226 226 226 226 226 227 227 227 226 226 226 227 228 227 227 226 226 226 226 226 226 225 226 229 234 238 242 246 251 257 261 264 266 269 271
211 211 212 213 216 218 220 221 221 220 219 217 215 214 214 214 214 215 216 216 216 218 220 223 225 227 228 229 228 228 227 227 227 227 227 227 226 226 226 227 227 227 227 227 228 229 229 229 229 228 228 228 228 229 228 227 228 231 236 241 244 249 255 260 262 264 267 270 272
212 213 215 216 218 220 222 224 224 223 221 219 216 214 214 214 214 215 216 217 219 222 224 225 226 228 229 230 230 229 229 229 228 228 228 227 227 227 226 227 228 228 228 228 229 230 230 230 230 230 230 230 231 230 229 229 230 234 239 244 248 252 257 260 263 265 267 270 272
214 215 217 218 220 222 223 225 225 224 222 219 217 215 215 215 216 217 219 221 223 224 225 225 226 227 229 229 230 230 230 229 229 229 229 228 228 227 227 227 228 229 229 229 230 231 231 231 231 232 232 231 231 230 229 229 232 236 242 247 252 255 258 260 264 265 267 270 272
217 218 219 220 222 223 224 225 223 222 220 218 217 217 217 217 218 219 221 223 224 225 225 226 226 228 229 230 230 230 230 230 230 230 230 229 228 228 228 228 228 229 230 231 231 231 231 232 232 233 233 233 232 231 230 230 233 239 244 250 254 256 258 261 263 265 267 270 273
218 219 221 222 223 224 224 224 223 220 219 218 219 219 219 219 220 221 222 223 225 227 227 227 228 229 229 230 230 230 230 230 230 230 230 229 228 228 228 227 228 228 230 231 231 232 232 232 233 235 235 235 235 234 233 234 236 241 247 251 254 256 258 260 261 263 266 269 271
219 221 222 223 223 224 223 223 222 220 219 219 220 220 220 221 222 223 224 226 228 228 228 228 228 228 228 229 229 230 230 231 231 231 230 229 228 227 227 227 228 228 229 230 231 231 232 233 235 236 237 237 237 237 237 237 240 244 249 253 256 258 259 260 262 263 266 268 271
220 222 223 223 222 222 221 219 218 218 219 219 219 220 220 221 223 225 227 228 228 228 228 229 228 227 227 228 229 230 231 232 232 231 230 229 228 227 227 227 228 229 229 230 230 231 232 233 235 237 238 238 239 239 239 241 243 247 251 255 258 260 262 263 264 266 267 269 272
222 223 223 222 220 219 217 216 216 216 217 218 219 220 221 222 224 226 227 227 227 228 229 229 228 227 227 228 229 230 231 232 232 231 230 229 227 227 227 227 228 229 230 230 230 231 232 234 235 237 238 239 239 240 241 243 246 249 253 257 259 262 264 267 268 269 270 271 272
222 222 221 220 217 216 215 214 215 215 216 218 219 221 222 223 225 226 226 227 228 229 229 228 228 228 228 229 229 230 231 232 232 231 229 228 227 226 226 227 228 229 230 231 231 232 233 235 237 238 239 240 241 242 243 245 248 251 255 258 261 263 266 270 272 273 273 272 272
221 221 220 218 216 214 214 214 215 216 217 219 220 222 223 225 225 226 226 227 228 228 227 227 227 228 228 230 231 232 232 232 231 230 228 227 226 225 225 226 228 229 230 232 233 234 236 237 239 240 241 242 244 245 247 249 251 254 257 260 262 265 268 272 274 274 274 273 274
221 221 221 219 216 214 214 214 215 217 218 220 222 224 225 226 226 226 226 227 227 228 227 227 227 227 229 230 232 233 233 232 230 228 226 225 225 225 225 226 228 229 231 233 235 237 239 241 242 244 245 246 248 250 251 252 254 257 260 262 264 267 270 273 274 275 274 274 275
222 222 221 220 217 216 215 215 217 218 220 222 224 225 226 226 226 226 226 226 227 227 228 228 228 228 228 229 231 232 232 231 229 227 225 224 224 225 226 227 228 230 232 234 236 239 241 243 245 247 248 250 252 254 255 256 258 260 262 264 266 268 270 273 274 275 275 276 277
223 223 223 222 220 218 217 217 219 220 222 224 225 226 226 227 227 227 226 226 227 227 228 229 229 229 228 228 229 230 230 230 228 227 226 225 225 226 227 228 230 232 234 236 238 240 243 245 247 249 251 253 256 258 259 260 261 262 264 265 267 268 270 272 274 275 276 277 277
225 225 225 224 223 222 221 221 222 224 225 227 227 228 228 228 228 228 228 228 228 228 228 229 230 230 229 228 228 228 229 228 228 228 228 227 228 228 229 230 233 235 237 239 241 243 245 247 249 251 253 256 258 260 262 263 263 264 265 266 267 268 270 271 273 274 275 276 278
226 226 227 227 227 227 227 227 228 229 230 230 231 230 230 230 229 229 229 229 229 229 229 229 229 229 229 229 228 228 228 229 229 229 229 229 229 230 231 233 235 237 239 242 244 247 249 251 252 254 256 258 260 262 263 264 264 265 265 266 267 268 269 271 273 274 276 278 279
228 228 228 229 230 231 232 233 234 234 235 234 233 232 232 231 230 230 229 228 229 229 229 229 228 228 228 228 228 228 228 229 229 230 230 230 230 231 233 235 237 239 242 244 247 249 251 253 255 256 257 259 261 262 263 264 264 265 265 266 267 268 269 271 273 275 277 279 280
230 230 231 232 232 233 234 236 237 237 237 236 234 233 232 231 230 229 229 229 228 228 228 228 228 227 227 226 226 226 227 228 228 229 230 230 231 233 235 238 239 241 244 246 248 251 253 255 256 257 259 260 261 262 264 264 265 265 266 267 268 269 271 272 274 276 278 280 281
232 232 233 233 234 235 236 237 237 237 236 235 234 233 232 230 229 228 228 228 227 226 226 227 228 228 228 227 227 227 227 227 227 228 230 232 234 236 238 239 241 243 245 248 251 253 255 257 259 260 260 261 262 263 264 265 265 266 267 268 269 270 272 274 275 277 279 280 281
233 234 235 235 235 236 236 236 235 235 234 234 233 231 230 228 227 226 226 225 225 225 225 226 227 228 229 229 229 229 228 228 229 230 232 234 236 238 239 241 243 245 248 252 254 257 259 261 262 263 263 263 264 265 266 266 266 267 268 269 270 272 273 275 276 277 278 279 280
233 234 235 236 236 235 234 233 232 232 231 231 230 229 228 226 225 223 223 222 223 223 224 224 225 226 227 228 229 230 230 231 231 233 235 237 239 240 242 243 246 249 253 256 259 261 262 264 265 265 266 266 267 267 268 268 268 268 269 270 271 272 274 275 276 277 277 278 279
231 233 235 236 235 233 231 230 229 228 228 228 228 227 225 224 222 221 220 219 219 220 221 221 222 223 224 225 228 230 232 234 236 237 238 240 242 243 245 247 250 253 257 260 263 265 266 267 268 269 269 269 269 269 270 269 269 269 270 270 271 272 273 275 276 276 277 277 278
227 230 232 232 231 228 226 225 224 225 225 225 225 224 223 221 220 218 217 216 216 216 218 218 219 220 222 224 227 230 233 235 238 239 241 243 244 246 249 251 255 259 263 267 269 271 272 272 272 273 273 273 272 272 272 272 272 272 272 272 273 273 273 274 276 277 278 279 280
222 224 225 225 223 221 220 221 221 222 222 222 221 220 218 217 216 215 213 213 213 214 215 217 218 221 224 227 230 232 234 237 239 242 244 247 249 252 255 259 264 269 273 276 278 279 279 278 277 276 275 275 275 276 276 276 276 276 275 275 275 274 274 275 276 278 279 280 282
215 216 217 217 215 215 216 217 218 218 218 218 218 216 214 213 211 211 211 211 212 214 215 218 222 225 229 232 234 237 239 242 244 247 250 254 257 260 265 270 275 280 284 285 286 286 285 283 282 280 277 275 276 277 277 277 277 277 277 276 276 275 275 276 277 278 280 282 283
211 212 213 211 210 210 212 212 213 214 214 213 212 211 210 209 208 208 210 211 214 215 218 222 227 231 233 235 239 242 246 248 252 255 259 262 267 272 277 282 286 289 291 291 291 290 288 287 286 284 282 278 276 275 275 276 276 276 276 276 276 276 276 277 278 279 280 282 283
208 208 207 205 205 205 205 206 207 207 207 207 206 206 206 206 206 208 211 214 217 220 225 229 232 235 237 240 244 248 251 255 259 263 267 272 277 282 287 290 292 294 295 294 293 292 291 290 289 287 286 283 279 276 275 275 276 276 276 276 276 277 277 278 279 280 280 281 282
193 194 195 195 194 194 194 196 197 198 199 200 200 201 203 204 207 210 215 218 223 227 231 234 237 240 243 247 251 254 258 263 267 271 276 282 287 291 294 294 295 297 297 297 296 295 294 293 291 290 288 286 282 278 276 276 276 276 276 277 277 278 278 279 279 280 280 281 281
162 172 176 178 177 178 180 183 185 187 189 192 194 198 202 206 210 215 220 224 228 231 233 237 240 244 248 252 256 262 267 273 278 283 288 292 294 296 298 298 298 299 300 300 300 298 297 296 294 292 290 288 284 281 279 278 278 278 278 278 278 279 279 279 279 280 280 281 281
143 153 160 162 162 164 166 169 172 176 180 184 190 196 202 208 214 218 222 226 230 233 237 241 246 250 255 261 268 275 282 288 292 296 298 299 300 300 300 300 301 302 302 303 302 301 300 298 296 294 292 290 286 283 282 281 281 280 280 280 280 281 281 281 281 281 281 281 280
131 141 146 148 150 152 155 158 161 166 171 177 185 194 204 211 215 218 222 227 232 238 243 250 256 264 271 279 285 291 296 299 301 302 303 303 303 302 301 301 302 303 304 304 303 302 301 299 297 295 293 291 289 286 285 284 284 283 283 283 283 283 283 283 283 283 282 282 281
124 131 135 138 140 143 146 148 151 156 161 169 177 189 201 211 216 219 222 228 235 242 251 261 271 280 286 292 296 300 303 305 306 306 306 305 304 302 301 301 303 305 306 306 305 304 303 301 299 297 295 293 291 289 288 287 286 286 285 285 286 286 285 285 285 285 284 284 283
118 123 127 130 133 136 139 140 142 146 152 159 169 180 192 203 212 218 222 230 241 253 265 276 284 290 295 299 302 305 307 308 308 308 308 307 305 304 303 304 307 309 310 310 309 308 306 304 303 301 299 296 293 291 290 290 289 288 288 288 288 288 288 288 288 287 287 286 285
115 120 124 127 130 132 135 137 138 139 142 147 153 161 170 183 198 209 223 246 266 281 290 296 299 302 306 308 310 310 310 311 311 311 311 312 311 309 309 309 310 312 313 313 312 310 309 307 305 303 301 298 296 294 293 292 291 290 290 289 289 290 290 290 290 289 289 288 287
114 119 123 126 129 132 133 134 133 133 133 131 130 130 135 146 180 238 283 300 305 307 309 311 312 314 316 316 316 315 315 316 316 316 316 316 316 314 313 312 312 313 313 313 312 311 309 308 307 304 302 299 298 296 295 294 293 292 291 291 291 291 291 291 291 290 290 289 288
112 115 118 121 125 127 129 127 125 122 121 119 118 113 102 48 339 325 323 321 320 319 318 318 320 321 322 322 320 319 319 320 320 319 318 317 317 316 314 312 311 312 312 312 311 310 309 308 307 306 303 301 299 298 297 295 294 293 292 292 292 292 291 291 291 290 290 289 289
109 110 112 115 118 121 123 123 122 120 119 117 116 101 13 337 331 328 326 325 324 324 324 324 325 325 325 324 322 320 319 320 320 319 318 316 316 315 313 312 311 311 312 312 312 311 310 310 309 307 305 302 300 299 298 296 295 294 293 293 292 292 292 292 292 291 290 289 289
113 113 114 115 117 119 121 120 119 117 112 101 64 2 342 336 335 333 332 330 330 330 328 327 326 325 325 323 320 318 317 317 318 318 317 316 315 315 314 314 313 313 313 314 314 313 313 312 311 309 307 304 302 301 299 298 296 295 294 294 294 293 293 293 292 291 290 290 289